Regional Weather Roundup
Issued by NWS

Home | Current Version | Previous Version | Graphics & Text | Print | Product List | Glossary On
Versions: 1 2 3 4 5 6 7 8 9 10 11 12 13 14 15 16 17 18 19 20 21 22 23 24 25 26 27 28 29 30 31 32 33 34 35 36 37 38 39 40 41 42 43 44 45 46 47 48 49 50
171
ASUS43 KFSD 260010
RWRSD

WEATHER ROUNDUP FOR SOUTH DAKOTA
NATIONAL WEATHER SERVICE SIOUX FALLS SD
700 PM CDT TUE JUL 25 2017

NOTE: "FAIR" INDICATES FEW OR NO CLOUDS BELOW 12,000 FEET WITH NO
SIGNIFICANT WEATHER AND/OR OBSTRUCTIONS TO VISIBILITY.


SDZ001>005-009-010-012>017-260100-
NORTHWEST AND NORTH CENTRAL SOUTH DAKOTA

CITY           SKY/WX    TMP DP  RH WIND       PRES   REMARKS
BUFFALO          N/A     79  50  36 E7        30.01S
FAITH            N/A     81  53  37 N21       30.00R
MOBRIDGE       PTSUNNY   82  59  45 N9        29.92F
$$

SDZ012>016-024>037-041>051-057-063-072>074-260100-
SOUTHWEST AND SOUTH CENTRAL SOUTH DAKOTA

CITY           SKY/WX    TMP DP  RH WIND       PRES   REMARKS
RAPID CTY ARPT CLOUDY    84  60  44 NE18      30.01S
PIERRE         SUNNY     88  68  51 NE23      29.85S
CUSTER         MOSUNNY   74  54  49 NE16G25   30.17S
ELLSWORTH AFB  MOSUNNY   83  62  47 N17       30.02S
PHILIP         MOSUNNY   91  67  44 NE21G30   29.89S
PINE RIDGE     PTSUNNY   88  62  41 NE15G23   29.96R
SPEARFISH      LGT RAIN  73  61  64 NE7G14    30.10S
WINNER         MOCLDY    91  65  41 W16G22    29.85S THUNDER
$$

SDZ004>011-016>023-039-040-260100-
NORTHEAST SOUTH DAKOTA

CITY           SKY/WX    TMP DP  RH WIND       PRES   REMARKS
ABERDEEN       SUNNY     82  72  71 N16       29.91S
WATERTOWN      CLOUDY    78  70  76 SE15G23   29.96R
BROOKINGS      TSTM      71  69  93 N13G18    29.96R
SISSETON         N/A     81  73  76 N9        29.91R
$$

SDZ017-020-022-023-036>040-048>070-260100-
SOUTHEAST SOUTH DAKOTA

CITY           SKY/WX    TMP DP  RH WIND       PRES   REMARKS
SIOUX FALLS    CLOUDY    88  61  40 S12       29.88R
HURON          LGT RAIN  76  67  73 SE18      29.86S
CHAMBERLAIN    CLOUDY    92  70  48 E15G22    29.83S HX  98
MITCHELL       LGT RAIN  76  73  91 S12       29.80F
YANKTON        CLOUDY    91  63  39 S15G22    29.88R
$$

ABBREVIATIONS USED IN REMARKS
   TC - TEMPERATURE IN CELSIUS
  WCI - WIND CHILL INDEX
   HX - HEAT INDEX
  VSB - VISIBILITY





USA.gov is the U.S. government's official web portal to all federal, state and local government web resources and services.